カタログに戻る

STARLINK-1262

運用中通信VLEO
NORAD 45366·PAYLOAD·🇺🇸 United States

打ち上げ Mar 18, 2020 から Cape Canaveral Space Force Station

Loading…

次のパス (今後24時間)

TLE

最新Source: CelesTrak SupGP

元期: Sep 14, 2026, 20:23 UTC

1 45366C 20019G   26257.84979167 -.00000863  00000+0 -19710-4 0  2576
2 45366  53.1503   0.3696 0001854  31.1297 279.2586 15.42294122    10

AllMySatでSTARLINK-1262をリアルタイム追跡

Download on the App Store